Flag for Brazil Weather past 2 weeks in Santos, São Paulo, Brazil

Now
77 °F

Partly sunny.


Feels Like: 79 °F
Forecast: 75 / 85 °F
Wind: 13 mph from Southeast

Location: Sao Paulo Airport

Current Time: Feb 1, 2015 at 1:37:07 PM

Latest Report: Feb 1, 2015 at 1:00 PM


Visibility: N/A

Pressure: 30.15 "Hg

Humidity: 74%

Dew point: 68 °F

Location of SantosLocation

Historic Weather in Santos — Graph

°F

Santos temperature yesterday

Maximum temperature yesterday: 73 °F (at 2:00 PM)
Minimum temperature yesterday: 64 °F (at 2:00 AM)
Average temperature yesterday: 69 °F

Past Weeks' High & Low Weather Summary

 TemperatureHumidityPressure
High95 °F (Jan 17, 4:00 PM)100% (Jan 22, 12:00 AM)30.21 "Hg (Jan 22, 12:00 AM)
Low34 °F (Jan 22, 12:00 AM)23% (Jan 19, 3:00 PM)29.95 "Hg (Jan 20, 4:00 PM)
Average75 °F69%30.07 "Hg
* Reported Jan 17 12:00 Noon — Feb 1 12:00 Noon, Santos, Weather by CustomWeather, © 2014

Note: Actual official high and low records may vary slightly from our data, if they occured in-between our weather recording intervals... More about our weather records

Advertising

Santos weather history for previous 24 hours

 ConditionsComfort  
Time TempWeatherWind HumidityBarometerVisibility
12:00 PM
Feb 1
79 °FPartly sunny.3 mph61%30.15 "HgN/A
11:00 AM77 °FPartly sunny.6 mph65%30.15 "HgN/A
10:00 AM75 °FPartly sunny.8 mph69%30.15 "HgN/A
9:00 AM73 °FPartly sunny.8 mph74%30.12 "HgN/A
8:00 AM72 °FPartly sunny.6 mph78%30.12 "HgN/A
7:00 AM70 °FBroken clouds.6 mph83%30.09 "HgN/A
6:00 AM68 °FPartly cloudy.9 mph88%30.09 "HgN/A
5:00 AM68 °FPassing clouds.8 mph88%30.09 "HgN/A
4:00 AM70 °FPassing clouds.7 mph83%30.09 "HgN/A
3:00 AM70 °FOvercast.8 mph83%30.09 "HgN/A
2:00 AM70 °FLow clouds.8 mph83%30.12 "HgN/A
1:00 AM70 °FOvercast.8 mph88%30.15 "HgN/A
12:00 AM70 °FMostly cloudy.8 mph88%30.15 "HgN/A
11:00 PM
Jan 31
70 °FMostly cloudy.9 mph83%30.18 "HgN/A
10:00 PM70 °FPartly cloudy.9 mph83%30.15 "HgN/A
9:00 PM70 °FPartly cloudy.9 mph83%30.15 "HgN/A
8:00 PM70 °FPartly cloudy.10 mph88%30.15 "HgN/A
7:00 PM72 °FBroken clouds.10 mph78%30.12 "HgN/A
6:00 PM73 °FPartly sunny.13 mph78%30.12 "HgN/A
5:00 PM73 °FBroken clouds.13 mph78%30.12 "HgN/A
4:00 PM73 °FBroken clouds.14 mph74%30.12 "HgN/A
3:00 PM73 °FPartly sunny.14 mph78%30.15 "HgN/A
2:00 PM73 °FBroken clouds.12 mph78%30.18 "HgN/A
1:00 PM72 °FCloudy.12 mph78%30.18 "HgN/A
Weather by CustomWeather, © 2014

See weather overviewHow to use our weather pages